Weather History for Henderson, KY

Change the Weather History Date:

Saturday, February 16, 2013

  Actual Average Record
Temperature  
Mean Temperature 29 °F -  
Max Temperature 35 °F 47 °F 71 °F (2011)
Min Temperature 23 °F 28 °F -1 °F (1958)
Degree Days  
Heating Degree Days 36    
Moisture  
Dew Point 12 °F    
Average Humidity 53    
Maximum Humidity 69    
Minimum Humidity 35    
Precipitation  
Precipitation 0.00 in - - ()
Sea Level Pressure  
Sea Level Pressure 30.19 in    
Wind  
Wind Speed 6 mph (NW)    
Max Wind Speed 16 mph    
Max Gust Speed 21 mph    
Visibility 10 miles    
Events      
Averages and records for this station are not official NWS values.
T = Trace of Precipitation, MM = Missing Value Source: NWS Daily Summary

Daily Weather History Graph

Daily Weather History Graph

Search for Another Location

Airport:

Trip Planner

Search our weather history database for the weather conditions in past years. The results will help you decide how hot, cold, wet, or windy it might be!

Date:

Astronomy

Feb. 16, 2013 Rise Set
Actual Time 6:38 AM CST 5:31 PM CST
Civil Twilight 6:12 AM CST 5:57 PM CST
Nautical Twilight 5:41 AM CST 6:28 PM CST
Astronomical Twilight 5:11 AM CST 6:59 PM CST
Moon 9:59 AM CST (2/16) No Moon Set
Length of Visible Light 11h 45m
Length of Day
10h 52m
Waxing Crescent, 39% of the Moon is Illuminated
Feb 16
Waxing Crescent
Feb 17
First Quarter
Feb 25
Full
Mar 4
Last Quarter
Mar 11
New

Hourly Weather History & Observations

Time (CST) Temp. Windchill Dew Point Humidity Pressure Visibility Wind Dir Wind Speed Gust Speed Precip Events Conditions
12:15 AM 26.6 °F 22.6 °F 17.6 °F 69% 30.19 in 10.0 mi NNW 3.5 mph - N/A   Clear
12:35 AM 26.6 °F 22.6 °F 17.6 °F 69% 30.19 in 10.0 mi NNW 3.5 mph - N/A   Clear
12:55 AM 26.6 °F - 17.6 °F 69% 30.18 in 10.0 mi Calm Calm - N/A   Clear
1:15 AM 26.6 °F - 17.6 °F 69% 30.18 in 10.0 mi Calm Calm - N/A   Clear
1:35 AM 26.6 °F - 15.8 °F 64% 30.17 in 10.0 mi Calm Calm - N/A   Clear
1:55 AM 26.6 °F - 15.8 °F 64% 30.17 in 10.0 mi Calm Calm - N/A   Clear
2:15 AM 26.6 °F - 15.8 °F 64% 30.17 in 10.0 mi Calm Calm - N/A   Clear
2:35 AM 26.6 °F - 15.8 °F 64% 30.16 in 10.0 mi Calm Calm - N/A   Clear
2:55 AM 26.6 °F - 15.8 °F 64% 30.16 in 10.0 mi Calm Calm - N/A   Clear
3:15 AM 24.8 °F 20.5 °F 15.8 °F 69% 30.16 in 10.0 mi West 3.5 mph - N/A   Clear
3:35 AM 26.6 °F 19.1 °F 15.8 °F 64% 30.16 in 10.0 mi NW 6.9 mph - N/A   Clear
3:55 AM 26.6 °F 19.1 °F 15.8 °F 64% 30.16 in 10.0 mi NW 6.9 mph - N/A   Clear
4:15 AM 26.6 °F 19.1 °F 15.8 °F 64% 30.17 in 10.0 mi NNW 6.9 mph - N/A   Clear
4:35 AM 26.6 °F 19.1 °F 14.0 °F 59% 30.17 in 10.0 mi NNW 6.9 mph - N/A   Clear
5:15 AM 26.6 °F 20.0 °F 12.2 °F 55% 30.17 in 10.0 mi NNW 5.8 mph - N/A   Overcast
5:35 AM 26.6 °F 18.2 °F 12.2 °F 55% 30.18 in 10.0 mi NNW 8.1 mph - N/A   Overcast
5:55 AM 26.6 °F 16.2 °F 12.2 °F 55% 30.18 in 10.0 mi NNW 11.5 mph - N/A   Overcast
6:15 AM 26.6 °F 19.1 °F 12.2 °F 55% 30.18 in 10.0 mi NNW 6.9 mph 16.1 mph N/A   Overcast
6:35 AM 26.6 °F 16.2 °F 12.2 °F 55% 30.19 in 10.0 mi NNW 11.5 mph - N/A   Overcast
6:55 AM 26.6 °F 16.8 °F 12.2 °F 55% 30.19 in 10.0 mi NNW 10.4 mph - N/A   Mostly Cloudy
7:15 AM 24.8 °F 15.3 °F 12.2 °F 59% 30.20 in 10.0 mi NNW 9.2 mph - N/A   Mostly Cloudy
7:55 AM 26.6 °F 16.8 °F 10.4 °F 51% 30.21 in 10.0 mi NNW 10.4 mph - N/A   Mostly Cloudy
8:15 AM 26.6 °F 15.7 °F 12.2 °F 55% 30.21 in 10.0 mi NW 12.7 mph - N/A   Mostly Cloudy
8:35 AM 26.6 °F 17.5 °F 10.4 °F 51% 30.22 in 10.0 mi NW 9.2 mph - N/A   Mostly Cloudy
8:55 AM 26.6 °F 15.7 °F 10.4 °F 51% 30.22 in 10.0 mi NW 12.7 mph - N/A   Mostly Cloudy
9:15 AM 26.6 °F 16.8 °F 12.2 °F 55% 30.22 in 10.0 mi NW 10.4 mph - N/A   Overcast
9:35 AM 28.4 °F 18.0 °F 12.2 °F 51% 30.22 in 10.0 mi NW 12.7 mph - N/A   Mostly Cloudy
9:55 AM 26.6 °F 16.2 °F 12.2 °F 55% 30.22 in 10.0 mi NW 11.5 mph 16.1 mph N/A   Mostly Cloudy
10:15 AM 28.4 °F 17.5 °F 12.2 °F 51% 30.22 in 10.0 mi NW 13.8 mph 17.3 mph N/A   Partly Cloudy
10:35 AM 28.4 °F 18.5 °F 12.2 °F 51% 30.22 in 10.0 mi NNW 11.5 mph 20.7 mph N/A   Partly Cloudy
10:55 AM 30.2 °F 21.3 °F 10.4 °F 44% 30.22 in 10.0 mi NW 10.4 mph - N/A   Partly Cloudy
11:15 AM 30.2 °F 20.2 °F 12.2 °F 47% 30.21 in 10.0 mi NW 12.7 mph - N/A   Clear
11:35 AM 32.0 °F 23.0 °F 12.2 °F 44% 30.21 in 10.0 mi NW 11.5 mph - N/A   Scattered Clouds
11:55 AM 32.0 °F 22.5 °F 14.0 °F 48% 30.20 in 10.0 mi NW 12.7 mph - N/A   Mostly Cloudy
12:15 PM 33.8 °F 24.3 °F 12.2 °F 41% 30.20 in 10.0 mi NW 13.8 mph 19.6 mph N/A   Scattered Clouds
12:35 PM 33.8 °F 23.9 °F 12.2 °F 41% 30.19 in 10.0 mi NW 15.0 mph 18.4 mph N/A   Scattered Clouds
12:55 PM 33.8 °F 23.9 °F 14.0 °F 44% 30.19 in 10.0 mi WNW 15.0 mph 19.6 mph N/A   Scattered Clouds
1:15 PM 33.8 °F 24.3 °F 14.0 °F 44% 30.18 in 10.0 mi West 13.8 mph 19.6 mph N/A   Mostly Cloudy
1:35 PM 33.8 °F 25.8 °F 15.8 °F 48% 30.18 in 10.0 mi NW 10.4 mph 17.3 mph N/A   Scattered Clouds
2:15 PM 33.8 °F 26.4 °F 12.2 °F 41% 30.18 in 10.0 mi NNW 9.2 mph - N/A   Mostly Cloudy
2:35 PM 35.6 °F 28.6 °F 12.2 °F 38% 30.17 in 10.0 mi WNW 9.2 mph - N/A   Scattered Clouds
2:55 PM 35.6 °F 27.1 °F 12.2 °F 38% 30.17 in 10.0 mi NNW 12.7 mph - N/A   Mostly Cloudy
3:15 PM 35.6 °F 25.9 °F 12.2 °F 38% 30.17 in 10.0 mi NW 16.1 mph 19.6 mph N/A   Mostly Cloudy
3:55 PM 35.6 °F 27.1 °F 10.4 °F 35% 30.18 in 10.0 mi WNW 12.7 mph - N/A   Partly Cloudy
4:15 PM 33.8 °F 24.3 °F 10.4 °F 38% 30.18 in 10.0 mi NNW 13.8 mph 19.6 mph N/A   Clear
4:35 PM 33.8 °F 24.8 °F 8.6 °F 35% 30.17 in 10.0 mi NW 12.7 mph 17.3 mph N/A   Partly Cloudy
4:55 PM 33.8 °F 23.9 °F 8.6 °F 35% 30.17 in 10.0 mi NW 15.0 mph - N/A   Clear
5:15 PM 32.0 °F 22.5 °F 8.6 °F 38% 30.18 in 10.0 mi WNW 12.7 mph - N/A   Clear
5:35 PM 30.2 °F 22.6 °F 10.4 °F 44% 30.18 in 10.0 mi WNW 8.1 mph - N/A   Clear
5:55 PM 30.2 °F 21.9 °F 10.4 °F 44% 30.18 in 10.0 mi WNW 9.2 mph - N/A   Clear
6:15 PM 30.2 °F 22.6 °F 10.4 °F 44% 30.19 in 10.0 mi WNW 8.1 mph - N/A   Clear
6:35 PM 28.4 °F 20.4 °F 10.4 °F 47% 30.19 in 10.0 mi WNW 8.1 mph - N/A   Clear
6:55 PM 26.6 °F 20.0 °F 10.4 °F 51% 30.19 in 10.0 mi WNW 5.8 mph - N/A   Clear
7:15 PM 26.6 °F 19.1 °F 10.4 °F 51% 30.19 in 10.0 mi WNW 6.9 mph - N/A   Clear
7:35 PM 26.6 °F 20.0 °F 10.4 °F 51% 30.19 in 10.0 mi WNW 5.8 mph - N/A   Clear
8:15 PM 26.6 °F 22.6 °F 10.4 °F 51% 30.19 in 10.0 mi West 3.5 mph - N/A   Clear
8:35 PM 24.8 °F - 12.2 °F 59% 30.20 in 10.0 mi Calm Calm - N/A   Clear
8:55 PM 24.8 °F - 10.4 °F 54% 30.20 in 10.0 mi Calm Calm - N/A   Clear
9:15 PM 24.8 °F - 10.4 °F 54% 30.20 in 10.0 mi Calm Calm - N/A   Clear
9:35 PM 24.8 °F 20.5 °F 10.4 °F 54% 30.20 in 10.0 mi WSW 3.5 mph - N/A   Clear
9:55 PM 23.0 °F 17.0 °F 10.4 °F 59% 30.20 in 10.0 mi SW 4.6 mph - N/A   Clear
10:35 PM 23.0 °F 17.0 °F 10.4 °F 59% 30.20 in 10.0 mi SW 4.6 mph - N/A   Clear
10:55 PM 23.0 °F 17.0 °F 10.4 °F 59% 30.20 in 10.0 mi WSW 4.6 mph - N/A   Clear
11:15 PM 23.0 °F 18.4 °F 10.4 °F 59% 30.20 in 10.0 mi WSW 3.5 mph - N/A   Clear
11:35 PM 23.0 °F - 10.4 °F 59% 30.20 in 10.0 mi Calm Calm - N/A   Clear
11:55 PM 23.0 °F - 10.4 °F 59% 30.19 in 10.0 mi Calm Calm - N/A   Clear